Location: Ottobeuren
(47.9410°N, 10.3007°E)
Time: 09:54:39
(UTC+01:00)

BlueWalker 3 - Pass Details

Date: 11 December 2025
Orbit: 451 x 463 km, 53.2° (Epoch: 18 January)

Event Time Altitude Azimuth Distance (km) Brightness Sun altitude
Rises 17:17:32 0° 292° (WNW) 2,495 6.2 -8.3°
Reaches altitude 10° 17:19:54 10° 280° (W) 1,618 5.4 -8.7°
Maximum altitude 17:22:58 26° 223° (SW) 959 4.3 -9.2°
Drops below altitude 10° 17:26:01 10° 165° (SSE) 1,611 4.6 -9.6°
Sets 17:28:22 0° 152° (SSE) 2,482 5.4 -10.0°
